Regional Weather Roundup
Issued by NWS Cleveland, OH

Home | Current Version | Previous Version | Graphics & Text | Print | Product List | Glossary On
Versions: 1 2 3 4 5 6 7 8 9 10 11 12 13 14 15 16 17 18 19 20 21 22 23 24 25 26 27 28 29 30 31 32 33 34 35 36 37 38 39 40 41 42 43 44 45 46 47 48 49 50
000
ASUS41 KCLE 261012
RWRCLE
OHIO REGIONAL WEATHER ROUNDUP
NATIONAL WEATHER SERVICE WILMINGTON, OH
600 AM EDT TUE JUL 26 2016

NOTE: "FAIR" INDICATES FEW OR NO CLOUDS BELOW 12,000 FEET WITH NO
SIGNIFICANT WEATHER AND/OR OBSTRUCTIONS TO VISIBILITY.

OHZ001>008-015>018-024>027-034-035-043-044-261100-
   NORTHWEST OHIO

CITY           SKY/WX    TMP DP  RH WIND       PRES   REMARKS
DEFIANCE       FAIR      65  61  87 CALM      30.05R
FINDLAY        FAIR      68  62  81 CALM      30.03R
TOLEDO EXPRESS FAIR      66  65  96 CALM      30.04R
TOLEDO EXEC    FAIR      70  63  78 N3        30.04R
LIMA           FAIR      65  64  97 CALM      30.04R
$$

OHZ009>014-019>023-028>033-038-089-261100-
   NORTHEAST OHIO

CITY           SKY/WX    TMP DP  RH WIND       PRES   REMARKS
CLE-HOPKINS    FAIR      74  68  81 NE10      30.04R
CLE-LAKEFRONT  MOCLDY    75  66  73 NE15      30.01R
CUY CO. ARPT   NOT AVBL
LORAIN-ELYRIA  CLOUDY    70  66  87 NE6       30.03R
ASHTABULA      FAIR      67  64  90 CALM      30.03R
AKRON-CANTON   FAIR      69  65  86 N6        30.03R
WOOSTER        FAIR      65  63  93 CALM      30.04R
MANSFIELD      FAIR      67  65  93 NW6       30.05R
YOUNGSTOWN     FAIR      67  65  93 NW5       30.02R
$$

OHZ042-051>053-060>062-070>072-077>081-261100-
  SOUTHWEST OHIO

CITY           SKY/WX    TMP DP  RH WIND       PRES   REMARKS
CINC-COVINGTON CLOUDY    78  74  87 N6        30.03R
CINC-LUNKEN    FAIR      75  75 100 CALM      30.02R
HAMILTON       FAIR      74  68  81 CALM      30.03R
DAYTON         CLOUDY    72  65  78 N5        30.05R
WRIGHT-PAT AFB CLOUDY    75  67  76 N5        30.03R
DAYTON GENERAL FAIR      76  65  68 N3        30.03R
WILMINGTON     FAIR      74  70  87 CALM      30.03R
$$

OHZ036-037-039>041-045>050-054>059-063>069-073>076-082>088-261100-
  CENTRAL AND SOUTHEAST OHIO

CITY           SKY/WX    TMP DP  RH WIND       PRES   REMARKS
COLUMBUS       FAIR      75  68  78 N8        30.01R
OSU AIRPORT    FAIR      74  68  81 NW3       30.03R
BOLTON FIELD   FAIR      73  69  88 NW3       30.03R
RICKENBACK AFB FAIR      73  71  96 CALM      30.01R
NEWARK         FAIR      71  69  93 CALM      30.01R
MARION         FAIR      70  65  84 N3        30.04R
LANCASTER      FAIR      72  71  97 CALM      30.02R
ZANESVILLE     FAIR      73  69  87 CALM      30.01R
NEW PHILLY     FAIR      69  64  84 CALM      30.01S
$$



USA.gov is the U.S. government's official web portal to all federal, state and local government web resources and services.